,,PA_Meas_PMT16A,,PR_Meas_QMR101_102,,RH_Meas_QMH101,,SR_Meas_QMS101,,TA_Meas_QMH101,,GenWind,,GenWind,
time,status,PA,status,PR,status,RH,status,SR,status,TA,status,DirAvg,status,SpdAvg,
2010-05-29, 00:00:05,VALID,918.268,VALID,0,VALID,96.5811,VALID,0,VALID,20.912,VALID,344,VALID,0.749609,
2010-05-29, 00:01:05,VALID,918.258,VALID,0,VALID,96.7411,VALID,0,VALID,20.9105,VALID,344,VALID,0.489453,
2010-05-29, 00:02:05,VALID,918.24,VALID,0,VALID,96.7793,VALID,0,VALID,20.969,VALID,344,VALID,0.29375,
2010-05-29, 00:03:05,VALID,918.231,VALID,0,VALID,96.8555,VALID,0,VALID,21.0486,VALID,344,VALID,0.246875,
2010-05-29, 00:04:05,VALID,918.262,VALID,0,VALID,96.8707,VALID,0,VALID,21.0681,VALID,344,VALID,0,
2010-05-29, 00:05:05,VALID,918.235,VALID,0,VALID,96.8631,VALID,0,VALID,21.0876,VALID,344,VALID,0.192969,
2010-05-29, 00:06:05,VALID,918.252,VALID,0,VALID,96.8403,VALID,0,VALID,21.0876,VALID,344,VALID,0.239453,
2010-05-29, 00:07:05,VALID,918.246,VALID,0,VALID,96.8098,VALID,0,VALID,21.0486,VALID,344,VALID,0.0105469,
2010-05-29, 00:08:05,VALID,918.263,VALID,0,VALID,96.7869,VALID,0,VALID,21.008,VALID,344,VALID,0.397266,
2010-05-29, 00:09:05,VALID,918.257,VALID,0,VALID,96.8021,VALID,0,VALID,20.9885,VALID,344,VALID,0.189063,
2010-05-29, 00:10:05,VALID,918.263,VALID,0,VALID,96.8403,VALID,0,VALID,20.9901,VALID,344,VALID,0,
2010-05-29, 00:11:05,VALID,918.27,VALID,0,VALID,96.8174,VALID,0,VALID,20.9706,VALID,344,VALID,0,
2010-05-29, 00:12:05,VALID,918.266,VALID,0,VALID,96.8479,VALID,0,VALID,20.9511,VALID,344,VALID,0,
2010-05-29, 00:13:05,VALID,918.268,VALID,0,VALID,96.9165,VALID,0,VALID,21.0096,VALID,344,VALID,0.162109,
2010-05-29, 00:14:05,VALID,918.287,VALID,0,VALID,96.9317,VALID,0,VALID,21.0486,VALID,344,VALID,0.592578,
2010-05-29, 00:15:05,VALID,918.282,VALID,0,VALID,96.9394,VALID,0,VALID,21.1071,VALID,344,VALID,0.742578,
2010-05-29, 00:16:05,VALID,918.282,VALID,0,VALID,96.9394,VALID,0,VALID,21.0876,VALID,344,VALID,0.947266,
2010-05-29, 00:17:05,VALID,918.271,VALID,0,VALID,96.9241,VALID,0,VALID,21.0681,VALID,344,VALID,0.935547,
2010-05-29, 00:18:05,VALID,918.265,VALID,0,VALID,96.9394,VALID,0,VALID,21.0876,VALID,344,VALID,0.847656,
2010-05-29, 00:19:05,VALID,918.242,VALID,0,VALID,96.9317,VALID,0,VALID,21.0876,VALID,344,VALID,0.999219,
2010-05-29, 00:20:05,VALID,918.256,VALID,0,VALID,96.947,VALID,0,VALID,21.086,VALID,344,VALID,0.791797,
2010-05-29, 00:21:05,VALID,918.232,VALID,0,VALID,96.9317,VALID,0,VALID,21.0876,VALID,344,VALID,0.858203,
2010-05-29, 00:22:05,VALID,918.217,VALID,0,VALID,96.9241,VALID,0,VALID,21.0486,VALID,344,VALID,0.656641,
2010-05-29, 00:23:05,VALID,918.196,VALID,0,VALID,96.9089,VALID,0,VALID,21.0486,VALID,344,VALID,0.546094,
2010-05-29, 00:24:05,VALID,918.19,VALID,0,VALID,96.9165,VALID,0,VALID,21.0291,VALID,344,VALID,0.407422,
2010-05-29, 00:25:05,VALID,918.155,VALID,0,VALID,96.8784,VALID,0,VALID,20.9901,VALID,344,VALID,0.475781,
2010-05-29, 00:26:05,VALID,918.155,VALID,0,VALID,96.8707,VALID,0,VALID,20.9901,VALID,344,VALID,0.2125,
2010-05-29, 00:27:05,VALID,918.155,VALID,0,VALID,96.8479,VALID,0,VALID,20.93,VALID,344,VALID,0.433203,
2010-05-29, 00:28:05,VALID,918.152,VALID,0,VALID,96.8174,VALID,0,VALID,20.912,VALID,344,VALID,0.133984,
2010-05-29, 00:29:05,VALID,918.15,VALID,0,VALID,96.7869,VALID,0,VALID,20.8324,VALID,344,VALID,0.326172,
2010-05-29, 00:30:05,VALID,918.1,VALID,0,VALID,96.8098,VALID,0,VALID,20.834,VALID,344,VALID,0.591797,
2010-05-29, 00:31:05,VALID,918.066,VALID,0,VALID,96.8631,VALID,0,VALID,20.8519,VALID,344,VALID,0.690234,
2010-05-29, 00:32:05,VALID,918.017,VALID,0,VALID,96.8098,VALID,0,VALID,20.834,VALID,344,VALID,0.203125,
2010-05-29, 00:33:05,VALID,918.016,VALID,0,VALID,96.8174,VALID,0,VALID,20.834,VALID,344,VALID,0.65625,
2010-05-29, 00:34:05,VALID,918.004,VALID,0,VALID,96.8326,VALID,0,VALID,20.834,VALID,344,VALID,0.813672,
2010-05-29, 00:35:05,VALID,918.039,VALID,0,VALID,96.8479,VALID,0,VALID,20.834,VALID,344,VALID,0.874609,
2010-05-29, 00:36:05,VALID,918.009,VALID,0,VALID,96.8631,VALID,0,VALID,20.8145,VALID,344,VALID,0.73125,
2010-05-29, 00:37:05,VALID,918.03,VALID,0,VALID,96.825,VALID,0,VALID,20.7544,VALID,344,VALID,0.432031,
2010-05-29, 00:38:05,VALID,918.019,VALID,0,VALID,96.8403,VALID,0,VALID,20.756,VALID,344,VALID,0.488672,
2010-05-29, 00:39:05,VALID,918.047,VALID,0,VALID,96.8555,VALID,0,VALID,20.7966,VALID,344,VALID,1.03594,
2010-05-29, 00:40:05,VALID,918.071,VALID,0,VALID,96.886,VALID,0,VALID,20.7544,VALID,344,VALID,0.887109,
2010-05-29, 00:41:05,VALID,918.073,VALID,0,VALID,96.9012,VALID,0,VALID,20.795,VALID,344,VALID,0.657031,
2010-05-29, 00:42:05,VALID,918.046,VALID,0,VALID,96.9089,VALID,0,VALID,20.7755,VALID,344,VALID,0.750781,
2010-05-29, 00:43:05,VALID,918.078,VALID,0,VALID,96.8936,VALID,0,VALID,20.7349,VALID,344,VALID,0.78125,
2010-05-29, 00:44:05,VALID,918.071,VALID,0,VALID,96.8707,VALID,0,VALID,20.717,VALID,344,VALID,0.692187,
2010-05-29, 00:45:05,VALID,918.076,VALID,0,VALID,96.9012,VALID,0,VALID,20.717,VALID,344,VALID,0.544531,
2010-05-29, 00:46:05,VALID,918.057,VALID,0,VALID,96.9089,VALID,0,VALID,20.6975,VALID,344,VALID,0.473437,
2010-05-29, 00:47:04,VALID,918.036,VALID,0,VALID,96.9622,VALID,0,VALID,20.7349,VALID,344,VALID,0.636719,
2010-05-29, 00:48:04,VALID,918.031,VALID,0,VALID,96.947,VALID,0,VALID,20.717,VALID,344,VALID,0.85,
2010-05-29, 00:49:04,VALID,918.02,VALID,0,VALID,96.947,VALID,0,VALID,20.717,VALID,345,VALID,0.569531,
2010-05-29, 00:50:04,VALID,918.02,VALID,0,VALID,96.9775,VALID,0,VALID,20.7755,VALID,345,VALID,0.916797,
2010-05-29, 00:51:04,VALID,918,VALID,0,VALID,97.008,VALID,0,VALID,20.795,VALID,345,VALID,0.622656,
2010-05-29, 00:52:04,VALID,917.966,VALID,0,VALID,97.0003,VALID,0,VALID,20.8145,VALID,345,VALID,1.3543,
2010-05-29, 00:53:04,VALID,917.954,VALID,0,VALID,97.0308,VALID,0,VALID,20.8519,VALID,346,VALID,1.04375,
2010-05-29, 00:54:04,VALID,917.955,VALID,0,VALID,97.0308,VALID,0,VALID,20.834,VALID,346,VALID,0.911328,
2010-05-29, 00:55:04,VALID,917.966,VALID,0,VALID,97.0232,VALID,0,VALID,20.8535,VALID,346,VALID,1.16211,
2010-05-29, 00:56:04,VALID,917.922,VALID,0,VALID,97.0385,VALID,0,VALID,20.873,VALID,346,VALID,0.852734,
2010-05-29, 00:57:04,VALID,917.896,VALID,0,VALID,97.0385,VALID,0,VALID,20.8535,VALID,346,VALID,0.871094,
2010-05-29, 00:58:04,VALID,917.909,VALID,0,VALID,97.0308,VALID,0,VALID,20.834,VALID,346,VALID,1.01602,
2010-05-29, 00:59:04,VALID,917.909,VALID,0,VALID,97.0537,VALID,0,VALID,20.8324,VALID,347,VALID,0.734766,
2010-05-29, 01:00:04,VALID,917.912,VALID,0,VALID,97.0613,VALID,0,VALID,20.8129,VALID,346,VALID,0.740234,
2010-05-29, 01:01:04,VALID,917.906,VALID,0,VALID,97.0461,VALID,0,VALID,20.8129,VALID,347,VALID,0.434375,
2010-05-29, 01:02:04,VALID,917.877,VALID,0,VALID,97.0461,VALID,0.107441,VALID,20.8324,VALID,347,VALID,0.639453,
2010-05-29, 01:03:04,VALID,917.867,VALID,0,VALID,97.069,VALID,0.107441,VALID,20.8714,VALID,347,VALID,0.561719,
2010-05-29, 01:04:04,VALID,917.853,VALID,0,VALID,97.0918,VALID,0,VALID,20.9105,VALID,347,VALID,0.5125,
2010-05-29, 01:05:04,VALID,917.842,VALID,0,VALID,97.1071,VALID,0,VALID,20.9495,VALID,347,VALID,0.678516,
2010-05-29, 01:06:04,VALID,917.823,VALID,0,VALID,97.0994,VALID,0,VALID,20.969,VALID,347,VALID,0.682031,
2010-05-29, 01:07:04,VALID,917.796,VALID,0,VALID,97.0994,VALID,0.107441,VALID,20.9495,VALID,347,VALID,0.783984,
2010-05-29, 01:08:04,VALID,917.796,VALID,0,VALID,97.0918,VALID,0,VALID,20.969,VALID,347,VALID,0.570703,
2010-05-29, 01:09:04,VALID,917.792,VALID,0,VALID,97.1223,VALID,0.107441,VALID,20.9885,VALID,347,VALID,0.536719,
2010-05-29, 01:10:04,VALID,917.8,VALID,0,VALID,97.0994,VALID,0,VALID,21.008,VALID,347,VALID,0.645312,
2010-05-29, 01:11:04,VALID,917.764,VALID,0,VALID,97.0994,VALID,0,VALID,20.9885,VALID,347,VALID,0.365625,
2010-05-29, 01:12:04,VALID,917.741,VALID,0,VALID,97.0918,VALID,0,VALID,20.9885,VALID,347,VALID,0.333594,
2010-05-29, 01:13:04,VALID,917.75,VALID,0,VALID,97.1147,VALID,0,VALID,20.9885,VALID,347,VALID,0.360547,
2010-05-29, 01:14:04,VALID,917.731,VALID,0,VALID,97.1071,VALID,0,VALID,20.9885,VALID,347,VALID,0.0078125,
2010-05-29, 01:15:04,VALID,917.705,VALID,0,VALID,97.1147,VALID,0,VALID,20.9511,VALID,347,VALID,0.415234,
2010-05-29, 01:16:04,VALID,917.674,VALID,0,VALID,97.0994,VALID,0,VALID,20.891,VALID,347,VALID,0.570313,
2010-05-29, 01:17:04,VALID,917.654,VALID,0,VALID,97.0842,VALID,0,VALID,20.8519,VALID,347,VALID,0.680078,
2010-05-29, 01:18:04,VALID,917.673,VALID,0,VALID,97.0918,VALID,0,VALID,20.873,VALID,347,VALID,0.746094,
2010-05-29, 01:19:04,VALID,917.639,VALID,0,VALID,97.0994,VALID,0,VALID,20.873,VALID,347,VALID,0.790625,
2010-05-29, 01:20:04,VALID,917.63,VALID,0,VALID,97.0766,VALID,0,VALID,20.834,VALID,347,VALID,0.623828,
2010-05-29, 01:21:04,VALID,917.641,VALID,0,VALID,97.069,VALID,0,VALID,20.834,VALID,347,VALID,0.761719,
2010-05-29, 01:22:04,VALID,917.638,VALID,0,VALID,97.0918,VALID,0,VALID,20.7739,VALID,347,VALID,0.976953,
2010-05-29, 01:23:04,VALID,917.666,VALID,0,VALID,97.0842,VALID,0,VALID,20.795,VALID,347,VALID,0.903125,
2010-05-29, 01:24:04,VALID,917.669,VALID,0,VALID,97.0842,VALID,0,VALID,20.7755,VALID,347,VALID,0.8,
2010-05-29, 01:25:04,VALID,917.664,VALID,0,VALID,97.0766,VALID,0,VALID,20.7755,VALID,347,VALID,0.770703,
2010-05-29, 01:26:04,VALID,917.665,VALID,0,VALID,97.0918,VALID,0,VALID,20.795,VALID,347,VALID,0.719141,
2010-05-29, 01:27:04,VALID,917.658,VALID,0,VALID,97.1071,VALID,0,VALID,20.8535,VALID,347,VALID,0.974609,
2010-05-29, 01:28:04,VALID,917.648,VALID,0,VALID,97.0918,VALID,0,VALID,20.8925,VALID,348,VALID,1.20938,
2010-05-29, 01:29:04,VALID,917.646,VALID,0,VALID,97.0994,VALID,0,VALID,20.9105,VALID,348,VALID,0.993359,
2010-05-29, 01:30:04,VALID,917.627,VALID,0,VALID,97.1147,VALID,0,VALID,20.9495,VALID,348,VALID,0.860937,
2010-05-29, 01:31:04,VALID,917.649,VALID,0,VALID,97.1147,VALID,0.107441,VALID,20.9284,VALID,347,VALID,0.734766,
2010-05-29, 01:32:04,VALID,917.626,VALID,0,VALID,97.0994,VALID,0.214882,VALID,20.9089,VALID,348,VALID,0.773047,
2010-05-29, 01:33:04,VALID,917.609,VALID,0,VALID,97.0918,VALID,0.107441,VALID,20.9105,VALID,348,VALID,0.627344,
2010-05-29, 01:34:04,VALID,917.589,VALID,0,VALID,97.0766,VALID,0.107441,VALID,20.8699,VALID,348,VALID,0.421484,
2010-05-29, 01:35:04,VALID,917.591,VALID,0,VALID,97.0918,VALID,0.107441,VALID,20.8504,VALID,348,VALID,0.292969,
2010-05-29, 01:36:04,VALID,917.588,VALID,0,VALID,97.069,VALID,0.107441,VALID,20.8519,VALID,348,VALID,0.0949219,
2010-05-29, 01:37:04,VALID,917.606,VALID,0,VALID,97.0613,VALID,0.107441,VALID,20.8113,VALID,348,VALID,0,
2010-05-29, 01:38:04,VALID,917.583,VALID,0,VALID,97.0766,VALID,0.107441,VALID,20.8129,VALID,348,VALID,0.205859,
2010-05-29, 01:39:04,VALID,917.596,VALID,0,VALID,97.0842,VALID,0.107441,VALID,20.7934,VALID,348,VALID,0.241016,
2010-05-29, 01:40:04,VALID,917.594,VALID,0,VALID,97.0766,VALID,0.107441,VALID,20.7934,VALID,348,VALID,0.00429688,
2010-05-29, 01:41:04,VALID,917.588,VALID,0,VALID,97.069,VALID,0.107441,VALID,20.7544,VALID,348,VALID,0.0324219,
2010-05-29, 01:42:04,VALID,917.597,VALID,0,VALID,97.0537,VALID,0.107441,VALID,20.7154,VALID,348,VALID,0.348828,
2010-05-29, 01:43:04,VALID,917.551,VALID,0,VALID,97.0537,VALID,0.107441,VALID,20.6959,VALID,348,VALID,0,
2010-05-29, 01:44:04,VALID,917.529,VALID,0,VALID,97.0385,VALID,0,VALID,20.678,VALID,348,VALID,0,
2010-05-29, 01:45:04,VALID,917.526,VALID,0,VALID,97.0537,VALID,0,VALID,20.678,VALID,348,VALID,0,
2010-05-29, 01:46:04,VALID,917.486,VALID,0,VALID,97.0613,VALID,0,VALID,20.6569,VALID,348,VALID,0.06875,
2010-05-29, 01:47:04,VALID,917.455,VALID,0,VALID,97.0613,VALID,0,VALID,20.639,VALID,348,VALID,0.523047,
2010-05-29, 01:48:04,VALID,917.449,VALID,0,VALID,97.0537,VALID,0,VALID,20.6194,VALID,348,VALID,0.821875,
2010-05-29, 01:49:04,VALID,917.412,VALID,0,VALID,97.0308,VALID,0,VALID,20.5399,VALID,348,VALID,1.03633,
2010-05-29, 01:50:04,VALID,917.413,VALID,0,VALID,97.0461,VALID,0,VALID,20.5804,VALID,348,VALID,0.96875,
2010-05-29, 01:51:04,VALID,917.397,VALID,0,VALID,97.0613,VALID,0,VALID,20.5804,VALID,348,VALID,0.85625,
2010-05-29, 01:52:04,VALID,917.367,VALID,0,VALID,97.0918,VALID,0,VALID,20.5804,VALID,348,VALID,0.780859,
2010-05-29, 01:53:04,VALID,917.338,VALID,0,VALID,97.0842,VALID,0,VALID,20.6194,VALID,348,VALID,0.621875,
2010-05-29, 01:54:04,VALID,917.313,VALID,0,VALID,97.1071,VALID,0,VALID,20.6585,VALID,348,VALID,0.910156,
2010-05-29, 01:55:04,VALID,917.297,VALID,0,VALID,97.1071,VALID,0,VALID,20.678,VALID,348,VALID,0.775781,
2010-05-29, 01:56:04,VALID,917.268,VALID,0,VALID,97.1147,VALID,0,VALID,20.6569,VALID,348,VALID,0.673828,
2010-05-29, 01:57:04,VALID,917.281,VALID,0,VALID,97.1071,VALID,0,VALID,20.639,VALID,348,VALID,0.73125,
2010-05-29, 01:58:04,VALID,917.256,VALID,0,VALID,97.1071,VALID,0,VALID,20.5594,VALID,348,VALID,0.474219,
2010-05-29, 01:59:04,VALID,917.245,VALID,0,VALID,97.1147,VALID,0,VALID,20.5609,VALID,348,VALID,0.708203,
2010-05-29, 02:00:04,VALID,917.212,VALID,0,VALID,97.1147,VALID,0,VALID,20.5219,VALID,348,VALID,1.0043,
2010-05-29, 02:01:04,VALID,917.21,VALID,0,VALID,97.0918,VALID,0,VALID,20.5024,VALID,348,VALID,0.836328,
2010-05-29, 02:02:04,VALID,917.207,VALID,0,VALID,97.0842,VALID,0,VALID,20.4439,VALID,348,VALID,0.975391,
2010-05-29, 02:03:04,VALID,917.186,VALID,0,VALID,97.1147,VALID,0,VALID,20.4244,VALID,348,VALID,0.798437,
2010-05-29, 02:04:04,VALID,917.196,VALID,0,VALID,97.1147,VALID,0,VALID,20.4049,VALID,348,VALID,0.814062,
2010-05-29, 02:05:04,VALID,917.167,VALID,0,VALID,97.1147,VALID,0,VALID,20.3854,VALID,348,VALID,0.664844,
2010-05-29, 02:06:04,VALID,917.133,VALID,0,VALID,97.1071,VALID,0,VALID,20.3464,VALID,348,VALID,0.773828,
2010-05-29, 02:07:04,VALID,917.121,VALID,0,VALID,97.1147,VALID,0,VALID,20.3479,VALID,348,VALID,0.757422,
2010-05-29, 02:08:04,VALID,917.077,VALID,0,VALID,97.1147,VALID,0,VALID,20.3464,VALID,348,VALID,0.691406,
2010-05-29, 02:09:04,VALID,917.063,VALID,0,VALID,97.1452,VALID,0,VALID,20.3269,VALID,348,VALID,0.641406,
2010-05-29, 02:10:04,VALID,917.056,VALID,0,VALID,97.1376,VALID,0,VALID,20.3464,VALID,348,VALID,1.11211,
2010-05-29, 02:11:04,VALID,916.982,VALID,0,VALID,97.1757,VALID,0,VALID,20.4049,VALID,348,VALID,1.2168,
2010-05-29, 02:12:04,VALID,916.995,VALID,0,VALID,97.1604,VALID,0,VALID,20.3659,VALID,348,VALID,1.07578,
2010-05-29, 02:13:04,VALID,916.965,VALID,0,VALID,97.1909,VALID,0,VALID,20.3838,VALID,138,VALID,1.01641,
2010-05-29, 02:14:04,VALID,916.96,VALID,0,VALID,97.1833,VALID,0,VALID,20.4049,VALID,137,VALID,1.15469,
2010-05-29, 02:15:04,VALID,916.972,VALID,0,VALID,97.1757,VALID,0,VALID,20.4244,VALID,136,VALID,0.952734,
2010-05-29, 02:16:04,VALID,916.934,VALID,0,VALID,97.1833,VALID,0,VALID,20.4244,VALID,136,VALID,0.891016,
2010-05-29, 02:17:04,VALID,916.982,VALID,0,VALID,97.2138,VALID,0,VALID,20.4049,VALID,135,VALID,1.19727,
2010-05-29, 02:18:04,VALID,916.963,VALID,0,VALID,97.1986,VALID,0,VALID,20.3838,VALID,126,VALID,0.855859,
2010-05-29, 02:19:04,VALID,916.965,VALID,0,VALID,97.2062,VALID,0,VALID,20.4049,VALID,126,VALID,1.16484,
2010-05-29, 02:20:04,VALID,916.962,VALID,0,VALID,97.2138,VALID,0,VALID,20.4049,VALID,111,VALID,1.00742,
2010-05-29, 02:21:04,VALID,916.94,VALID,0,VALID,97.2138,VALID,0,VALID,20.4049,VALID,111,VALID,1.30391,
2010-05-29, 02:22:04,VALID,916.917,VALID,0,VALID,97.2062,VALID,0,VALID,20.4049,VALID,111,VALID,1.16562,
2010-05-29, 02:23:04,VALID,916.863,VALID,0,VALID,97.2062,VALID,0,VALID,20.3854,VALID,111,VALID,0.670313,
2010-05-29, 02:24:04,VALID,916.876,VALID,0,VALID,97.2138,VALID,0,VALID,20.3854,VALID,111,VALID,0.726172,
2010-05-29, 02:25:04,VALID,916.823,VALID,0,VALID,97.2138,VALID,0,VALID,20.4049,VALID,111,VALID,0.472656,
2010-05-29, 02:26:04,VALID,916.846,VALID,0,VALID,97.2214,VALID,0,VALID,20.4049,VALID,111,VALID,0.703516,
2010-05-29, 02:27:04,VALID,916.854,VALID,0,VALID,97.2214,VALID,0,VALID,20.4634,VALID,180,VALID,1.05859,
2010-05-29, 02:28:04,VALID,916.831,VALID,0,VALID,97.229,VALID,0,VALID,20.4634,VALID,180,VALID,0.519922,
2010-05-29, 02:29:04,VALID,916.836,VALID,0,VALID,97.2367,VALID,0,VALID,20.4829,VALID,180,VALID,0.244531,
2010-05-29, 02:30:04,VALID,916.809,VALID,0,VALID,97.2367,VALID,0,VALID,20.4829,VALID,180,VALID,1.32617,
2010-05-29, 02:31:04,VALID,916.834,VALID,0,VALID,97.2443,VALID,0,VALID,20.4813,VALID,180,VALID,1.1543,
2010-05-29, 02:32:04,VALID,916.825,VALID,0,VALID,97.2672,VALID,0,VALID,20.4829,VALID,179,VALID,1.0707,
2010-05-29, 02:33:04,VALID,916.825,VALID,0,VALID,97.229,VALID,0,VALID,20.4829,VALID,177,VALID,0.605859,
2010-05-29, 02:34:04,VALID,916.847,VALID,0,VALID,97.2672,VALID,0,VALID,20.4829,VALID,162,VALID,1.0668,
2010-05-29, 02:35:04,VALID,916.804,VALID,0,VALID,97.2367,VALID,0,VALID,20.5024,VALID,162,VALID,1.03594,
2010-05-29, 02:36:04,VALID,916.779,VALID,0,VALID,97.2367,VALID,0,VALID,20.4829,VALID,160,VALID,0.925391,
2010-05-29, 02:37:04,VALID,916.77,VALID,0,VALID,97.2519,VALID,0.107441,VALID,20.5204,VALID,160,VALID,0.641797,
2010-05-29, 02:38:04,VALID,916.767,VALID,0,VALID,97.2595,VALID,0,VALID,20.5625,VALID,161,VALID,1.21875,
2010-05-29, 02:39:04,VALID,916.776,VALID,0,VALID,97.2748,VALID,0,VALID,20.5804,VALID,171,VALID,0.744922,
2010-05-29, 02:40:04,VALID,916.728,VALID,0,VALID,97.2519,VALID,0,VALID,20.5999,VALID,171,VALID,0.725391,
2010-05-29, 02:41:04,VALID,916.737,VALID,0,VALID,97.2367,VALID,0,VALID,20.6194,VALID,161,VALID,0.898438,
2010-05-29, 02:42:04,VALID,916.722,VALID,0,VALID,97.2443,VALID,0,VALID,20.6194,VALID,152,VALID,0.731641,
2010-05-29, 02:43:04,VALID,916.714,VALID,0,VALID,97.2595,VALID,0,VALID,20.6585,VALID,142,VALID,0.635938,
2010-05-29, 02:44:04,VALID,916.718,VALID,0,VALID,97.2443,VALID,0,VALID,20.6585,VALID,142,VALID,0.860156,
2010-05-29, 02:45:04,VALID,916.693,VALID,0,VALID,97.2443,VALID,0,VALID,20.6585,VALID,141,VALID,0.7,
2010-05-29, 02:46:04,VALID,916.691,VALID,0,VALID,97.2367,VALID,0,VALID,20.6585,VALID,122,VALID,0.865234,
2010-05-29, 02:47:04,VALID,916.683,VALID,0,VALID,97.2138,VALID,0,VALID,20.6585,VALID,122,VALID,0.922266,
2010-05-29, 02:48:04,VALID,916.677,VALID,0,VALID,97.1986,VALID,0,VALID,20.6975,VALID,130,VALID,1.44531,
2010-05-29, 02:49:04,VALID,916.664,VALID,0,VALID,97.1909,VALID,0.107441,VALID,20.6374,VALID,129,VALID,1.19453,
2010-05-29, 02:50:04,VALID,916.681,VALID,0,VALID,97.1757,VALID,0,VALID,20.678,VALID,124,VALID,0.952344,
2010-05-29, 02:51:04,VALID,916.641,VALID,0,VALID,97.1528,VALID,0,VALID,20.7365,VALID,143,VALID,1.43984,
2010-05-29, 02:52:04,VALID,916.672,VALID,0,VALID,97.1452,VALID,0,VALID,20.717,VALID,133,VALID,1.15273,
2010-05-29, 02:53:04,VALID,916.637,VALID,0,VALID,97.1452,VALID,0,VALID,20.7365,VALID,121,VALID,1.00234,
2010-05-29, 02:54:04,VALID,916.636,VALID,0,VALID,97.1147,VALID,0,VALID,20.7154,VALID,121,VALID,1.40391,
2010-05-29, 02:55:04,VALID,916.618,VALID,0,VALID,97.0918,VALID,0,VALID,20.7349,VALID,135,VALID,1.4043,
2010-05-29, 02:56:04,VALID,916.655,VALID,0,VALID,97.0537,VALID,0,VALID,20.7755,VALID,121,VALID,1.01875,
2010-05-29, 02:57:04,VALID,916.622,VALID,0,VALID,97.0232,VALID,0,VALID,20.7544,VALID,121,VALID,1.01328,
2010-05-29, 02:58:04,VALID,916.633,VALID,0,VALID,96.9775,VALID,0,VALID,20.7739,VALID,121,VALID,0.844141,
2010-05-29, 02:59:04,VALID,916.621,VALID,0,VALID,96.8098,VALID,0,VALID,20.7755,VALID,121,VALID,1.1332,
2010-05-29, 03:00:04,VALID,916.61,VALID,0,VALID,96.703,VALID,0,VALID,20.7349,VALID,121,VALID,0.624609,
2010-05-29, 03:01:04,VALID,916.602,VALID,0,VALID,96.6192,VALID,0,VALID,20.7365,VALID,121,VALID,0.578516,
2010-05-29, 03:02:04,VALID,916.598,VALID,0,VALID,96.5734,VALID,0,VALID,20.7365,VALID,121,VALID,1.34766,
2010-05-29, 03:03:04,VALID,916.646,VALID,0,VALID,96.5277,VALID,0,VALID,20.7154,VALID,142,VALID,1.08906,
2010-05-29, 03:04:04,VALID,916.59,VALID,0,VALID,96.4972,VALID,0,VALID,20.7365,VALID,157,VALID,1.02695,
2010-05-29, 03:05:04,VALID,916.603,VALID,0,VALID,96.421,VALID,0,VALID,20.7365,VALID,166,VALID,0.729297,
2010-05-29, 03:06:04,VALID,916.581,VALID,0,VALID,96.3829,VALID,0,VALID,20.7154,VALID,166,VALID,0.742969,
2010-05-29, 03:07:04,VALID,916.576,VALID,0,VALID,96.2914,VALID,0,VALID,20.6975,VALID,166,VALID,0.514063,
2010-05-29, 03:08:04,VALID,916.564,VALID,0,VALID,96.1999,VALID,0,VALID,20.717,VALID,137,VALID,0.669141,
2010-05-29, 03:09:04,VALID,916.56,VALID,0,VALID,96.1389,VALID,0,VALID,20.6975,VALID,112,VALID,1.43516,
2010-05-29, 03:10:04,VALID,916.54,VALID,0,VALID,96.1236,VALID,0,VALID,20.717,VALID,127,VALID,1.1375,
2010-05-29, 03:11:04,VALID,916.52,VALID,0,VALID,96.0703,VALID,0,VALID,20.6764,VALID,125,VALID,1.375,
2010-05-29, 03:12:04,VALID,916.539,VALID,0,VALID,95.9941,VALID,0,VALID,20.717,VALID,133,VALID,1.21797,
2010-05-29, 03:13:04,VALID,916.52,VALID,0,VALID,95.9178,VALID,0,VALID,20.6975,VALID,133,VALID,1.32148,
2010-05-29, 03:14:04,VALID,916.526,VALID,0,VALID,95.8416,VALID,0,VALID,20.678,VALID,133,VALID,1.29766,
2010-05-29, 03:15:04,VALID,916.554,VALID,0,VALID,95.8111,VALID,0,VALID,20.717,VALID,133,VALID,1.27656,
2010-05-29, 03:16:04,VALID,916.537,VALID,0,VALID,95.7501,VALID,0,VALID,20.717,VALID,133,VALID,1.13125,
2010-05-29, 03:17:04,VALID,916.564,VALID,0,VALID,95.6967,VALID,0,VALID,20.717,VALID,133,VALID,1.04023,
2010-05-29, 03:18:04,VALID,916.57,VALID,0,VALID,95.6357,VALID,0,VALID,20.717,VALID,133,VALID,0.968359,
2010-05-29, 03:19:04,VALID,916.565,VALID,0,VALID,95.5748,VALID,0,VALID,20.717,VALID,111,VALID,1.16641,
2010-05-29, 03:20:04,VALID,916.568,VALID,0,VALID,95.5138,VALID,0,VALID,20.717,VALID,111,VALID,0.974609,
2010-05-29, 03:21:04,VALID,916.553,VALID,0,VALID,95.4604,VALID,0,VALID,20.7365,VALID,111,VALID,0.715234,
2010-05-29, 03:22:04,VALID,916.527,VALID,0,VALID,95.3918,VALID,0,VALID,20.717,VALID,111,VALID,1.26875,
2010-05-29, 03:23:04,VALID,916.546,VALID,0,VALID,95.3613,VALID,0,VALID,20.717,VALID,111,VALID,1.28633,
2010-05-29, 03:24:04,VALID,916.551,VALID,0,VALID,95.4071,VALID,0,VALID,20.717,VALID,111,VALID,1.24727,
2010-05-29, 03:25:04,VALID,916.516,VALID,0,VALID,95.3766,VALID,0,VALID,20.717,VALID,105,VALID,1.23594,
2010-05-29, 03:26:04,VALID,916.533,VALID,0,VALID,95.3918,VALID,0,VALID,20.717,VALID,123,VALID,1.47305,
2010-05-29, 03:27:04,VALID,916.514,VALID,0,VALID,95.4528,VALID,0,VALID,20.6975,VALID,127,VALID,0.932813,
2010-05-29, 03:28:04,VALID,916.515,VALID,0,VALID,95.4909,VALID,0,VALID,20.6975,VALID,139,VALID,1.2293,
2010-05-29, 03:29:04,VALID,916.5,VALID,0,VALID,95.5138,VALID,0,VALID,20.6975,VALID,138,VALID,1.01289,
2010-05-29, 03:30:04,VALID,916.513,VALID,0,VALID,95.5748,VALID,0,VALID,20.6764,VALID,150,VALID,1.29023,
2010-05-29, 03:31:04,VALID,916.512,VALID,0,VALID,95.59,VALID,0,VALID,20.7154,VALID,130,VALID,1.12539,
2010-05-29, 03:32:04,VALID,916.505,VALID,0,VALID,95.529,VALID,0,VALID,20.717,VALID,136,VALID,1.22383,
2010-05-29, 03:33:04,VALID,916.517,VALID,0,VALID,95.4528,VALID,0,VALID,20.717,VALID,138,VALID,0.991016,
2010-05-29, 03:34:04,VALID,916.51,VALID,0,VALID,95.3918,VALID,0,VALID,20.717,VALID,129,VALID,0.857813,
2010-05-29, 03:35:04,VALID,916.537,VALID,0,VALID,95.3994,VALID,0,VALID,20.7365,VALID,129,VALID,0.501953,
2010-05-29, 03:36:04,VALID,916.546,VALID,0,VALID,95.4071,VALID,0,VALID,20.7365,VALID,129,VALID,1.00078,
2010-05-29, 03:37:04,VALID,916.539,VALID,0,VALID,95.3918,VALID,0,VALID,20.756,VALID,129,VALID,0.718359,
2010-05-29, 03:38:04,VALID,916.555,VALID,0,VALID,95.4299,VALID,0,VALID,20.756,VALID,129,VALID,0.996094,
2010-05-29, 03:39:04,VALID,916.543,VALID,0,VALID,95.4223,VALID,0,VALID,20.756,VALID,129,VALID,1.07305,
2010-05-29, 03:40:04,VALID,916.536,VALID,0,VALID,95.4071,VALID,0,VALID,20.7755,VALID,130,VALID,1.34023,
2010-05-29, 03:41:04,VALID,916.533,VALID,0,VALID,95.3766,VALID,0,VALID,20.756,VALID,130,VALID,0.772266,
2010-05-29, 03:42:04,VALID,916.494,VALID,0,VALID,95.3613,VALID,0,VALID,20.795,VALID,138,VALID,1.12383,
2010-05-29, 03:43:04,VALID,916.529,VALID,0,VALID,95.2927,VALID,0,VALID,20.795,VALID,138,VALID,0.750391,
2010-05-29, 03:44:04,VALID,916.557,VALID,0,VALID,95.1936,VALID,0,VALID,20.795,VALID,138,VALID,0.841016,